Time,TemperatureF,DewpointF,PressureIn,WindDirection,WindDirectionDegrees,WindSpeedMPH,WindSpeedGustMPH,Humidity,HourlyPrecipIn,Conditions,Clouds,dailyrainin,SoftwareType,DateUTC
2013-05-19 00:01:00,62.4,44.6,30.03,ENE,68,0.0,0.0,52,0.00,,---,0.00,VWS V14.01,2013-05-19 04:01:00,
2013-05-19 00:02:00,62.4,44.6,30.03,NE,45,0.0,0.0,52,0.00,,---,0.00,VWS V14.01,2013-05-19 04:02:00,
2013-05-19 00:04:00,62.2,44.9,30.03,NE,45,0.0,0.0,53,0.00,,---,0.00,VWS V14.01,2013-05-19 04:04:00,
2013-05-19 00:06:00,62.2,44.9,30.03,NE,45,0.0,0.0,53,0.00,,---,0.00,VWS V14.01,2013-05-19 04:06:00,
2013-05-19 00:07:00,62.2,44.9,30.03,NE,45,0.0,0.0,53,0.00,,---,0.00,VWS V14.01,2013-05-19 04:07:00,
2013-05-19 00:12:00,61.8,44.5,30.03,NE,45,0.0,0.0,53,0.00,,---,0.00,VWS V14.01,2013-05-19 04:12:00,
2013-05-19 00:17:00,61.7,44.4,30.04,NE,45,0.0,0.0,53,0.00,,---,0.00,VWS V14.01,2013-05-19 04:17:00,
2013-05-19 00:22:00,61.5,44.7,30.04,ENE,68,0.0,0.0,54,0.00,,---,0.00,VWS V14.01,2013-05-19 04:22:00,
2013-05-19 00:27:00,61.1,44.3,30.03,ENE,68,0.0,0.0,54,0.00,,---,0.00,VWS V14.01,2013-05-19 04:27:00,
2013-05-19 00:32:00,60.9,44.6,30.03,ENE,68,0.0,0.0,55,0.00,,---,0.00,VWS V14.01,2013-05-19 04:32:00,
2013-05-19 00:37:00,60.9,44.6,30.03,ENE,68,0.0,0.0,55,0.00,,---,0.00,VWS V14.01,2013-05-19 04:37:00,
2013-05-19 00:42:00,60.6,44.4,30.03,ENE,68,0.0,0.0,55,0.00,,---,0.00,VWS V14.01,2013-05-19 04:42:00,
2013-05-19 00:47:00,60.4,44.2,30.03,ENE,68,0.0,0.0,55,0.00,,---,0.00,VWS V14.01,2013-05-19 04:47:00,
2013-05-19 00:52:00,60.4,44.2,30.03,ENE,68,0.0,0.0,55,0.00,,---,0.00,VWS V14.01,2013-05-19 04:52:00,
2013-05-19 00:57:00,60.0,43.8,30.03,ENE,68,0.0,0.0,55,0.00,,---,0.00,VWS V14.01,2013-05-19 04:57:00,
2013-05-19 01:02:00,59.9,43.7,30.03,ENE,68,0.0,0.0,55,0.00,,---,0.00,VWS V14.01,2013-05-19 05:02:00,
2013-05-19 01:07:00,59.7,44.0,30.03,ENE,68,0.0,0.0,56,0.00,,---,0.00,VWS V14.01,2013-05-19 05:07:00,
2013-05-19 01:12:00,59.5,43.8,30.02,ENE,68,0.0,0.0,56,0.00,,---,0.00,VWS V14.01,2013-05-19 05:12:00,
2013-05-19 01:17:00,59.5,43.8,30.03,ENE,68,0.0,0.0,56,0.00,,---,0.00,VWS V14.01,2013-05-19 05:17:00,
2013-05-19 01:22:00,59.1,43.4,30.02,ENE,68,0.0,0.0,56,0.00,,---,0.00,VWS V14.01,2013-05-19 05:22:00,
2013-05-19 01:27:00,58.8,43.6,30.02,ENE,68,0.0,0.0,57,0.00,,---,0.00,VWS V14.01,2013-05-19 05:27:00,
2013-05-19 01:32:00,58.8,43.6,30.02,ENE,68,0.0,0.0,57,0.00,,---,0.00,VWS V14.01,2013-05-19 05:32:00,
2013-05-19 01:37:00,58.8,43.6,30.02,ENE,68,0.0,0.0,57,0.00,,---,0.00,VWS V14.01,2013-05-19 05:37:00,
2013-05-19 01:42:00,58.8,44.1,30.02,NE,45,0.0,0.0,58,0.00,,---,0.00,VWS V14.01,2013-05-19 05:42:00,
2013-05-19 01:47:00,58.4,43.7,30.02,NE,45,0.0,0.0,58,0.00,,---,0.00,VWS V14.01,2013-05-19 05:47:00,
2013-05-19 01:52:00,58.2,43.5,30.01,NE,45,0.0,0.0,58,0.00,,---,0.00,VWS V14.01,2013-05-19 05:52:00,
2013-05-19 01:57:00,58.1,43.4,30.01,NE,45,0.0,0.0,58,0.00,,---,0.00,VWS V14.01,2013-05-19 05:57:00,
2013-05-19 02:02:00,57.9,43.2,30.01,NE,45,0.0,0.0,58,0.00,,---,0.00,VWS V14.01,2013-05-19 06:02:00,
2013-05-19 02:07:00,57.9,43.7,30.01,NE,45,0.0,0.0,59,0.00,,---,0.00,VWS V14.01,2013-05-19 06:07:00,
2013-05-19 02:12:00,57.7,43.5,30.00,NE,45,0.0,0.0,59,0.00,,---,0.00,VWS V14.01,2013-05-19 06:12:00,
2013-05-19 02:17:00,57.5,43.3,30.01,NE,45,0.0,0.0,59,0.00,,---,0.00,VWS V14.01,2013-05-19 06:17:00,
2013-05-19 02:22:00,57.3,43.1,30.01,NE,45,0.0,0.0,59,0.00,,---,0.00,VWS V14.01,2013-05-19 06:22:00,
2013-05-19 02:27:00,57.2,43.0,30.00,NE,45,0.0,0.0,59,0.00,,---,0.00,VWS V14.01,2013-05-19 06:27:00,
2013-05-19 02:32:00,57.0,43.3,30.00,NE,45,0.0,0.0,60,0.00,,---,0.00,VWS V14.01,2013-05-19 06:32:00,
2013-05-19 02:37:00,57.0,43.3,30.00,NE,45,0.0,0.0,60,0.00,,---,0.00,VWS V14.01,2013-05-19 06:37:00,
2013-05-19 02:42:00,57.0,43.7,30.00,NE,45,0.0,0.0,61,0.00,,---,0.00,VWS V14.01,2013-05-19 06:42:00,
2013-05-19 02:47:00,56.8,43.5,30.00,NE,45,0.0,0.0,61,0.00,,---,0.00,VWS V14.01,2013-05-19 06:47:00,
2013-05-19 02:52:00,56.8,43.5,30.00,NE,45,0.0,0.0,61,0.00,,---,0.00,VWS V14.01,2013-05-19 06:52:00,
2013-05-19 02:57:00,56.6,43.3,30.00,NE,45,0.0,0.0,61,0.00,,---,0.00,VWS V14.01,2013-05-19 06:57:00,
2013-05-19 03:02:00,56.4,43.1,30.00,NE,45,0.0,0.0,61,0.00,,---,0.00,VWS V14.01,2013-05-19 07:02:00,
2013-05-19 03:07:00,56.4,43.1,30.00,NE,45,0.0,0.0,61,0.00,,---,0.00,VWS V14.01,2013-05-19 07:07:00,
2013-05-19 03:12:00,56.3,43.5,30.00,NE,45,0.0,0.0,62,0.00,,---,0.00,VWS V14.01,2013-05-19 07:12:00,
2013-05-19 03:17:00,56.1,43.3,30.00,NE,45,0.0,0.0,62,0.00,,---,0.00,VWS V14.01,2013-05-19 07:17:00,
2013-05-19 03:22:00,56.1,42.8,30.00,NE,45,0.0,0.0,61,0.00,,---,0.00,VWS V14.01,2013-05-19 07:22:00,
2013-05-19 03:27:00,55.9,43.1,30.00,NE,45,0.0,0.0,62,0.00,,---,0.00,VWS V14.01,2013-05-19 07:27:00,
2013-05-19 03:32:00,55.9,43.1,30.00,NE,45,0.0,0.0,62,0.00,,---,0.00,VWS V14.01,2013-05-19 07:32:00,
2013-05-19 03:37:00,55.7,42.9,30.00,NE,45,0.0,0.0,62,0.00,,---,0.00,VWS V14.01,2013-05-19 07:37:00,
2013-05-19 03:42:00,55.5,42.7,30.00,NE,45,0.0,0.0,62,0.00,,---,0.00,VWS V14.01,2013-05-19 07:42:00,
2013-05-19 03:47:00,55.5,43.1,30.00,NE,45,0.0,0.0,63,0.00,,---,0.00,VWS V14.01,2013-05-19 07:47:00,
2013-05-19 03:52:00,55.4,43.0,30.00,NE,45,0.0,0.0,63,0.00,,---,0.00,VWS V14.01,2013-05-19 07:52:00,
2013-05-19 03:57:00,55.2,43.2,30.00,NE,45,0.0,0.0,64,0.00,,---,0.00,VWS V14.01,2013-05-19 07:57:00,
2013-05-19 04:03:00,55.2,43.7,30.00,NE,45,0.0,0.0,65,0.00,,---,0.00,VWS V14.01,2013-05-19 08:03:00,
2013-05-19 04:08:00,54.8,43.7,30.00,NE,45,0.0,0.0,66,0.00,,---,0.00,VWS V14.01,2013-05-19 08:08:00,
2013-05-19 04:13:00,54.6,43.9,30.00,NE,45,0.0,0.0,67,0.00,,---,0.00,VWS V14.01,2013-05-19 08:13:00,
2013-05-19 04:18:00,54.5,43.8,30.00,NE,45,0.0,0.0,67,0.00,,---,0.00,VWS V14.01,2013-05-19 08:18:00,
2013-05-19 04:23:00,54.3,43.6,30.00,NE,45,0.0,0.0,67,0.00,,---,0.00,VWS V14.01,2013-05-19 08:23:00,
2013-05-19 04:28:00,54.3,43.6,30.00,NE,45,0.0,0.0,67,0.00,,---,0.00,VWS V14.01,2013-05-19 08:28:00,
2013-05-19 04:33:00,54.1,43.4,30.00,NE,45,0.0,0.0,67,0.00,,---,0.00,VWS V14.01,2013-05-19 08:33:00,
2013-05-19 04:38:00,54.1,43.8,30.01,NE,45,0.0,0.0,68,0.00,,---,0.00,VWS V14.01,2013-05-19 08:38:00,
2013-05-19 04:43:00,54.1,43.8,30.01,NE,45,0.0,0.0,68,0.00,,---,0.00,VWS V14.01,2013-05-19 08:43:00,
2013-05-19 04:48:00,53.9,43.6,30.01,NE,45,0.0,0.0,68,0.00,,---,0.00,VWS V14.01,2013-05-19 08:48:00,
2013-05-19 04:53:00,53.7,43.4,30.01,NE,45,0.0,0.0,68,0.00,,---,0.00,VWS V14.01,2013-05-19 08:53:00,
2013-05-19 04:58:00,53.7,43.8,30.01,NE,45,0.0,0.0,69,0.00,,---,0.00,VWS V14.01,2013-05-19 08:58:00,
2013-05-19 05:04:00,53.4,43.5,30.01,NE,45,0.0,0.0,69,0.00,,---,0.00,VWS V14.01,2013-05-19 09:04:00,
2013-05-19 05:09:00,53.6,43.3,30.01,NE,45,0.0,0.0,68,0.00,,---,0.00,VWS V14.01,2013-05-19 09:09:00,
2013-05-19 05:14:00,53.4,43.5,30.01,NE,45,0.0,0.0,69,0.00,,---,0.00,VWS V14.01,2013-05-19 09:14:00,
2013-05-19 05:19:00,53.4,43.5,30.01,ENE,68,0.0,0.0,69,0.00,,---,0.00,VWS V14.01,2013-05-19 09:19:00,
2013-05-19 05:24:00,53.4,43.5,30.01,ENE,68,0.0,0.0,69,0.00,,---,0.00,VWS V14.01,2013-05-19 09:24:00,
2013-05-19 05:29:00,53.4,43.5,30.01,ENE,68,0.0,0.0,69,0.00,,---,0.00,VWS V14.01,2013-05-19 09:29:00,
2013-05-19 05:34:00,53.4,43.5,30.01,ENE,68,0.0,0.0,69,0.00,,---,0.00,VWS V14.01,2013-05-19 09:34:00,
2013-05-19 05:39:00,53.4,43.9,30.01,NE,45,0.0,0.0,70,0.00,,---,0.00,VWS V14.01,2013-05-19 09:39:00,
2013-05-19 05:44:00,53.4,43.9,30.01,NE,45,0.0,0.0,70,0.00,,---,0.00,VWS V14.01,2013-05-19 09:44:00,
2013-05-19 05:49:00,53.2,43.7,30.00,NE,45,0.0,0.0,70,0.00,,---,0.00,VWS V14.01,2013-05-19 09:49:00,
2013-05-19 05:54:00,53.2,43.7,30.00,NE,45,0.0,0.0,70,0.00,,---,0.00,VWS V14.01,2013-05-19 09:54:00,
2013-05-19 05:59:00,53.2,43.7,30.00,NE,45,0.0,0.0,70,0.00,,---,0.00,VWS V14.01,2013-05-19 09:59:00,
2013-05-19 06:04:00,53.4,43.9,30.01,NE,45,0.0,0.0,70,0.00,,---,0.00,VWS V14.01,2013-05-19 10:04:00,
2013-05-19 06:09:00,53.4,43.9,30.00,NE,45,0.0,0.0,70,0.00,,---,0.00,VWS V14.01,2013-05-19 10:09:00,
2013-05-19 06:14:00,53.4,43.9,30.01,NE,45,0.0,0.0,70,0.00,,---,0.00,VWS V14.01,2013-05-19 10:14:00,
2013-05-19 06:19:00,53.4,43.9,30.01,NE,45,0.0,0.0,70,0.00,,---,0.00,VWS V14.01,2013-05-19 10:19:00,
2013-05-19 06:24:00,53.4,43.9,30.01,NE,45,0.0,0.0,70,0.00,,---,0.00,VWS V14.01,2013-05-19 10:24:00,
2013-05-19 06:29:00,53.4,43.9,30.01,NE,45,0.0,0.0,70,0.00,,---,0.00,VWS V14.01,2013-05-19 10:29:00,
2013-05-19 06:34:00,53.4,43.9,30.01,NE,45,0.0,0.0,70,0.00,,---,0.00,VWS V14.01,2013-05-19 10:34:00,
2013-05-19 06:39:00,53.4,43.9,30.01,NE,45,0.0,0.0,70,0.00,,---,0.00,VWS V14.01,2013-05-19 10:39:00,
2013-05-19 06:44:00,53.6,44.1,30.01,NE,45,0.0,0.0,70,0.00,,---,0.00,VWS V14.01,2013-05-19 10:44:00,
2013-05-19 06:49:00,53.7,44.2,30.01,NE,45,0.0,0.0,70,0.00,,---,0.00,VWS V14.01,2013-05-19 10:49:00,
2013-05-19 06:54:00,53.7,44.2,30.01,NE,45,0.0,0.0,70,0.00,,---,0.00,VWS V14.01,2013-05-19 10:54:00,
2013-05-19 06:59:00,53.9,44.3,30.01,NE,45,0.0,0.0,70,0.00,,---,0.00,VWS V14.01,2013-05-19 10:59:00,
2013-05-19 07:04:00,54.3,44.7,30.01,NE,45,0.0,0.0,70,0.00,,---,0.00,VWS V14.01,2013-05-19 11:04:00,
2013-05-19 07:09:00,54.5,45.3,30.01,NE,45,0.0,0.0,71,0.00,,---,0.00,VWS V14.01,2013-05-19 11:09:00,
2013-05-19 07:14:00,54.6,45.4,30.01,NE,45,0.0,0.0,71,0.00,,---,0.00,VWS V14.01,2013-05-19 11:14:00,
2013-05-19 07:19:00,55.2,46.0,30.01,NE,45,0.0,0.0,71,0.00,,---,0.00,VWS V14.01,2013-05-19 11:19:00,
2013-05-19 07:24:00,55.5,46.3,30.01,NE,45,0.0,0.0,71,0.00,,---,0.00,VWS V14.01,2013-05-19 11:24:00,
2013-05-19 07:29:00,55.7,46.5,30.01,NE,45,0.0,0.0,71,0.00,,---,0.00,VWS V14.01,2013-05-19 11:29:00,
2013-05-19 07:34:00,56.3,46.7,30.01,NE,45,0.0,0.0,70,0.00,,---,0.00,VWS V14.01,2013-05-19 11:34:00,
2013-05-19 07:39:00,56.4,46.8,30.01,NE,45,0.0,0.0,70,0.00,,---,0.00,VWS V14.01,2013-05-19 11:39:00,
2013-05-19 07:44:00,56.8,47.1,30.01,NE,45,0.0,0.0,70,0.00,,---,0.00,VWS V14.01,2013-05-19 11:44:00,
2013-05-19 07:49:00,57.3,47.6,30.01,NE,45,0.0,0.0,70,0.00,,---,0.00,VWS V14.01,2013-05-19 11:49:00,
2013-05-19 07:54:00,57.7,47.6,30.01,ENE,68,0.0,0.0,69,0.00,,---,0.00,VWS V14.01,2013-05-19 11:54:00,
2013-05-19 07:59:00,57.9,47.8,30.00,ESE,112,0.0,0.0,69,0.00,,---,0.00,VWS V14.01,2013-05-19 11:59:00,
2013-05-19 08:04:00,58.4,47.9,30.00,ENE,68,0.0,0.0,68,0.00,,---,0.00,VWS V14.01,2013-05-19 12:04:00,
2013-05-19 08:09:00,58.8,48.3,30.00,NE,45,0.0,0.0,68,0.00,,---,0.00,VWS V14.01,2013-05-19 12:09:00,
2013-05-19 08:14:00,59.0,48.1,30.00,ENE,68,0.0,0.0,67,0.00,,---,0.00,VWS V14.01,2013-05-19 12:14:00,
2013-05-19 08:19:00,59.7,48.7,30.00,NE,45,0.0,0.0,67,0.00,,---,0.00,VWS V14.01,2013-05-19 12:19:00,
2013-05-19 08:24:00,60.0,48.6,30.00,East,90,0.0,0.0,66,0.00,,---,0.00,VWS V14.01,2013-05-19 12:24:00,
2013-05-19 08:29:00,60.4,49.0,30.00,East,90,0.0,0.0,66,0.00,,---,0.00,VWS V14.01,2013-05-19 12:29:00,
2013-05-19 08:34:00,60.9,49.1,30.00,SW,225,0.0,0.0,65,0.00,,---,0.00,VWS V14.01,2013-05-19 12:34:00,
2013-05-19 08:40:00,61.1,49.3,29.99,SE,135,0.0,0.0,65,0.00,,---,0.00,VWS V14.01,2013-05-19 12:40:00,
2013-05-19 08:45:00,61.7,49.4,29.99,SE,135,0.0,0.0,64,0.00,,---,0.00,VWS V14.01,2013-05-19 12:45:00,
2013-05-19 08:50:00,62.0,49.3,29.99,NNW,338,0.0,0.0,63,0.00,,---,0.00,VWS V14.01,2013-05-19 12:50:00,
2013-05-19 08:55:00,62.4,49.7,29.99,SSE,158,0.0,0.0,63,0.00,,---,0.00,VWS V14.01,2013-05-19 12:55:00,
2013-05-19 09:00:00,62.7,49.1,29.99,SW,225,0.0,0.0,61,0.00,,---,0.00,VWS V14.01,2013-05-19 13:00:00,
2013-05-19 09:05:00,63.1,49.5,29.99,SSE,158,0.0,0.0,61,0.00,,---,0.00,VWS V14.01,2013-05-19 13:05:00,
2013-05-19 09:10:00,63.3,49.6,29.99,SW,225,4.9,4.9,61,0.00,,---,0.00,VWS V14.01,2013-05-19 13:10:00,
2013-05-19 09:15:00,63.6,49.5,29.99,SW,225,0.0,0.0,60,0.00,,---,0.00,VWS V14.01,2013-05-19 13:15:00,
2013-05-19 09:21:00,64.0,49.8,30.00,SE,135,0.0,0.0,60,0.00,,---,0.00,VWS V14.01,2013-05-19 13:21:00,
2013-05-19 09:26:00,64.2,50.0,30.00,SW,225,0.0,0.0,60,0.00,,---,0.00,VWS V14.01,2013-05-19 13:26:00,
2013-05-19 09:31:00,64.5,49.9,30.00,West,270,0.0,0.0,59,0.00,,---,0.00,VWS V14.01,2013-05-19 13:31:00,
2013-05-19 09:36:00,65.1,50.4,30.00,North,0,0.0,0.0,59,0.00,,---,0.00,VWS V14.01,2013-05-19 13:36:00,
2013-05-19 09:41:00,65.4,50.7,30.00,West,270,3.8,3.8,59,0.00,,---,0.00,VWS V14.01,2013-05-19 13:41:00,
2013-05-19 09:46:00,65.8,50.6,30.00,WSW,248,2.6,2.6,58,0.00,,---,0.00,VWS V14.01,2013-05-19 13:46:00,
2013-05-19 09:51:00,66.2,51.0,30.00,NE,45,0.0,0.0,58,0.00,,---,0.00,VWS V14.01,2013-05-19 13:51:00,
2013-05-19 09:56:00,66.3,51.1,29.99,WSW,248,0.8,0.8,58,0.00,,---,0.00,VWS V14.01,2013-05-19 13:56:00,
2013-05-19 10:01:00,66.7,51.5,29.99,SSE,158,2.0,2.0,58,0.00,,---,0.00,VWS V14.01,2013-05-19 14:01:00,
2013-05-19 10:06:00,67.1,51.4,29.99,WSW,248,0.0,0.0,57,0.00,,---,0.00,VWS V14.01,2013-05-19 14:06:00,
2013-05-19 10:11:00,67.2,51.5,29.99,SSE,158,0.8,0.8,57,0.00,,---,0.00,VWS V14.01,2013-05-19 14:11:00,
2013-05-19 10:16:00,67.6,51.8,29.99,SSE,158,0.0,0.0,57,0.00,,---,0.00,VWS V14.01,2013-05-19 14:16:00,
2013-05-19 10:21:00,68.1,52.3,29.99,NE,45,0.0,0.0,57,0.00,,---,0.00,VWS V14.01,2013-05-19 14:21:00,
2013-05-19 10:26:00,68.5,52.7,30.00,SE,135,0.0,1.3,57,0.00,,---,0.00,VWS V14.01,2013-05-19 14:26:00,
2013-05-19 10:31:00,69.0,52.7,29.99,SSW,202,0.0,0.0,56,0.00,,---,0.00,VWS V14.01,2013-05-19 14:31:00,
2013-05-19 10:36:00,69.4,52.5,29.99,SW,225,0.0,0.0,55,0.00,,---,0.00,VWS V14.01,2013-05-19 14:36:00,
2013-05-19 10:41:00,69.6,52.7,29.99,WSW,248,2.4,2.4,55,0.00,,---,0.00,VWS V14.01,2013-05-19 14:41:00,
2013-05-19 10:46:00,69.9,53.0,29.99,WSW,248,4.0,4.0,55,0.00,,---,0.00,VWS V14.01,2013-05-19 14:46:00,
2013-05-19 10:51:00,70.3,52.9,29.99,WSW,248,0.0,0.0,54,0.00,,---,0.00,VWS V14.01,2013-05-19 14:51:00,
2013-05-19 10:56:00,70.7,53.3,29.99,NNW,338,0.0,0.0,54,0.00,,---,0.00,VWS V14.01,2013-05-19 14:56:00,
2013-05-19 11:01:00,71.2,53.7,29.99,North,0,0.0,0.0,54,0.00,,---,0.00,VWS V14.01,2013-05-19 15:01:00,
2013-05-19 11:06:00,71.4,53.4,29.99,NE,45,0.0,0.0,53,0.00,,---,0.00,VWS V14.01,2013-05-19 15:06:00,
2013-05-19 11:11:00,71.7,53.7,29.99,NNW,338,0.0,0.0,53,0.00,,---,0.00,VWS V14.01,2013-05-19 15:11:00,
2013-05-19 11:17:00,72.3,54.2,29.99,NE,45,2.6,2.6,53,0.00,,---,0.00,VWS V14.01,2013-05-19 15:17:00,
2013-05-19 11:22:00,72.8,54.7,29.99,West,270,0.0,0.0,53,0.00,,---,0.00,VWS V14.01,2013-05-19 15:22:00,
2013-05-19 11:27:00,73.2,54.5,29.98,NNW,338,0.0,0.0,52,0.00,,---,0.00,VWS V14.01,2013-05-19 15:27:00,
2013-05-19 11:32:00,73.5,54.3,29.98,SW,225,0.0,0.0,51,0.00,,---,0.00,VWS V14.01,2013-05-19 15:32:00,
2013-05-19 11:37:00,73.5,54.3,29.98,West,270,0.0,0.0,51,0.00,,---,0.00,VWS V14.01,2013-05-19 15:37:00,
2013-05-19 11:42:00,73.9,54.7,29.98,WNW,292,0.0,2.2,51,0.00,,---,0.00,VWS V14.01,2013-05-19 15:42:00,
2013-05-19 11:47:00,74.3,55.0,29.98,NE,45,0.0,0.0,51,0.00,,---,0.00,VWS V14.01,2013-05-19 15:47:00,
2013-05-19 11:52:00,74.6,54.8,29.98,NNW,338,3.1,3.1,50,0.00,,---,0.00,VWS V14.01,2013-05-19 15:52:00,
2013-05-19 11:57:00,75.0,55.1,29.98,SW,225,1.3,1.3,50,0.00,,---,0.00,VWS V14.01,2013-05-19 15:57:00,
2013-05-19 12:02:00,75.3,55.4,29.97,NE,45,1.1,1.1,50,0.00,,---,0.00,VWS V14.01,2013-05-19 16:02:00,
2013-05-19 12:07:00,75.7,55.8,29.97,North,0,0.0,0.0,50,0.00,,---,0.00,VWS V14.01,2013-05-19 16:07:00,
2013-05-19 12:12:00,76.2,56.2,29.97,WSW,248,0.0,0.0,50,0.00,,---,0.00,VWS V14.01,2013-05-19 16:12:00,
2013-05-19 12:17:00,76.6,56.6,29.97,East,90,0.0,2.0,50,0.00,,---,0.00,VWS V14.01,2013-05-19 16:17:00,
2013-05-19 12:22:00,76.8,55.7,29.97,SW,225,0.0,0.0,48,0.00,,---,0.00,VWS V14.01,2013-05-19 16:22:00,
2013-05-19 12:27:00,76.8,56.2,29.97,SW,225,1.7,1.7,49,0.00,,---,0.00,VWS V14.01,2013-05-19 16:27:00,
2013-05-19 12:32:00,77.3,56.7,29.97,SW,225,0.8,6.4,49,0.00,,---,0.00,VWS V14.01,2013-05-19 16:32:00,
2013-05-19 12:37:00,77.3,56.7,29.96,SSW,202,0.0,0.0,49,0.00,,---,0.00,VWS V14.01,2013-05-19 16:37:00,
2013-05-19 12:42:00,77.7,57.6,29.95,SE,135,0.0,0.0,50,0.00,,---,0.00,VWS V14.01,2013-05-19 16:42:00,
2013-05-19 12:47:00,78.0,57.9,29.95,SSE,158,0.0,0.0,50,0.00,,---,0.00,VWS V14.01,2013-05-19 16:47:00,
2013-05-19 12:52:00,78.6,57.9,29.95,West,270,3.5,3.5,49,0.00,,---,0.00,VWS V14.01,2013-05-19 16:52:00,
2013-05-19 12:57:00,78.6,57.3,29.95,SW,225,0.0,0.0,48,0.00,,---,0.00,VWS V14.01,2013-05-19 16:57:00,
2013-05-19 13:02:00,78.8,57.5,29.95,SW,225,3.3,3.3,48,0.00,,---,0.00,VWS V14.01,2013-05-19 17:02:00,
2013-05-19 13:07:00,78.9,57.6,29.95,SW,225,7.8,7.8,48,0.00,,---,0.00,VWS V14.01,2013-05-19 17:07:00,
2013-05-19 13:12:00,78.9,57.6,29.95,SSW,202,1.5,1.5,48,0.00,,---,0.00,VWS V14.01,2013-05-19 17:12:00,
2013-05-19 13:17:00,79.3,57.3,29.94,NNW,338,3.1,3.1,47,0.00,,---,0.00,VWS V14.01,2013-05-19 17:17:00,
2013-05-19 13:22:00,79.5,57.5,29.94,WSW,248,7.1,7.1,47,0.00,,---,0.00,VWS V14.01,2013-05-19 17:22:00,
2013-05-19 13:27:00,79.8,57.8,29.93,West,270,2.9,3.3,47,0.00,,---,0.00,VWS V14.01,2013-05-19 17:27:00,
2013-05-19 13:32:00,80.2,58.2,29.93,South,180,2.9,2.9,47,0.00,,---,0.00,VWS V14.01,2013-05-19 17:32:00,
2013-05-19 13:37:00,80.4,58.3,29.93,SSE,158,6.9,6.9,47,0.00,,---,0.00,VWS V14.01,2013-05-19 17:37:00,
2013-05-19 13:42:00,80.7,58.0,29.93,SSE,158,0.0,0.6,46,0.00,,---,0.00,VWS V14.01,2013-05-19 17:42:00,
2013-05-19 13:47:00,80.7,58.0,29.93,WSW,248,1.3,1.3,46,0.00,,---,0.00,VWS V14.01,2013-05-19 17:47:00,
2013-05-19 13:52:00,81.1,58.4,29.93,SSE,158,0.0,0.0,46,0.00,,---,0.00,VWS V14.01,2013-05-19 17:52:00,
2013-05-19 13:57:00,81.3,58.6,29.93,West,270,7.3,7.3,46,0.00,,---,0.00,VWS V14.01,2013-05-19 17:57:00,
2013-05-19 14:02:00,81.6,58.8,29.93,SW,225,0.0,3.1,46,0.00,,---,0.00,VWS V14.01,2013-05-19 18:02:00,
2013-05-19 14:07:00,81.6,58.2,29.93,West,270,5.8,5.8,45,0.00,,---,0.00,VWS V14.01,2013-05-19 18:07:00,
2013-05-19 14:12:00,81.6,58.2,29.93,WSW,248,3.5,3.5,45,0.00,,---,0.00,VWS V14.01,2013-05-19 18:12:00,
2013-05-19 14:17:00,82.0,58.6,29.93,SE,135,0.0,0.0,45,0.00,,---,0.00,VWS V14.01,2013-05-19 18:17:00,
2013-05-19 14:22:00,82.0,58.6,29.93,WSW,248,0.0,0.0,45,0.00,,---,0.00,VWS V14.01,2013-05-19 18:22:00,
2013-05-19 14:27:00,82.2,58.8,29.93,West,270,5.5,5.5,45,0.00,,---,0.00,VWS V14.01,2013-05-19 18:27:00,
2013-05-19 14:32:00,82.2,58.8,29.93,WSW,248,3.1,5.5,45,0.00,,---,0.00,VWS V14.01,2013-05-19 18:32:00,
2013-05-19 14:37:00,82.2,58.8,29.92,NE,45,0.0,0.0,45,0.00,,---,0.00,VWS V14.01,2013-05-19 18:37:00,
2013-05-19 14:42:00,82.7,59.2,29.93,WSW,248,0.0,0.0,45,0.00,,---,0.00,VWS V14.01,2013-05-19 18:42:00,
2013-05-19 14:47:00,83.1,59.0,29.93,WSW,248,5.8,5.8,44,0.00,,---,0.00,VWS V14.01,2013-05-19 18:47:00,
2013-05-19 14:52:00,83.3,59.1,29.93,SW,225,5.8,5.8,44,0.00,,---,0.00,VWS V14.01,2013-05-19 18:52:00,
2013-05-19 14:57:00,83.4,58.6,29.93,SW,225,8.2,8.2,43,0.00,,---,0.00,VWS V14.01,2013-05-19 18:57:00,
2013-05-19 15:02:00,83.6,58.8,29.93,SW,225,8.0,8.0,43,0.00,,---,0.00,VWS V14.01,2013-05-19 19:02:00,
2013-05-19 15:07:00,83.6,58.8,29.93,SW,225,7.3,7.3,43,0.00,,---,0.00,VWS V14.01,2013-05-19 19:07:00,
2013-05-19 15:12:00,84.0,59.1,29.93,SSW,202,0.0,0.0,43,0.00,,---,0.00,VWS V14.01,2013-05-19 19:12:00,
2013-05-19 15:17:00,84.3,59.4,29.93,SW,225,0.0,2.6,43,0.00,,---,0.00,VWS V14.01,2013-05-19 19:17:00,
2013-05-19 15:22:00,84.5,59.6,29.93,SW,225,0.0,0.0,43,0.00,,---,0.00,VWS V14.01,2013-05-19 19:22:00,
2013-05-19 15:27:00,84.7,59.8,29.92,SSE,158,0.0,0.0,43,0.00,,---,0.00,VWS V14.01,2013-05-19 19:27:00,
2013-05-19 15:32:00,84.9,59.9,29.91,SW,225,6.9,6.9,43,0.00,,---,0.00,VWS V14.01,2013-05-19 19:32:00,
2013-05-19 15:37:00,84.7,59.1,29.91,WSW,248,4.4,4.4,42,0.00,,---,0.00,VWS V14.01,2013-05-19 19:37:00,
2013-05-19 15:42:00,84.7,59.1,29.91,South,180,0.0,0.0,42,0.00,,---,0.00,VWS V14.01,2013-05-19 19:42:00,
2013-05-19 15:47:00,84.7,59.8,29.91,SSW,202,8.2,8.2,43,0.00,,---,0.00,VWS V14.01,2013-05-19 19:47:00,
2013-05-19 15:52:00,84.9,59.3,29.91,SE,135,5.5,5.5,42,0.00,,---,0.00,VWS V14.01,2013-05-19 19:52:00,
2013-05-19 15:57:00,84.7,59.1,29.91,ESE,112,0.0,0.0,42,0.00,,---,0.00,VWS V14.01,2013-05-19 19:57:00,
2013-05-19 16:02:00,84.7,59.8,29.91,North,0,0.0,0.0,43,0.00,,---,0.00,VWS V14.01,2013-05-19 20:02:00,
2013-05-19 16:07:00,84.9,59.9,29.90,West,270,0.0,0.0,43,0.00,,---,0.00,VWS V14.01,2013-05-19 20:07:00,
2013-05-19 16:12:00,85.4,59.7,29.90,West,270,6.9,6.9,42,0.00,,---,0.00,VWS V14.01,2013-05-19 20:12:00,
2013-05-19 16:17:00,85.6,59.9,29.89,South,180,1.1,1.1,42,0.00,,---,0.00,VWS V14.01,2013-05-19 20:17:00,
2013-05-19 16:22:00,85.6,59.9,29.89,ENE,68,0.0,0.0,42,0.00,,---,0.00,VWS V14.01,2013-05-19 20:22:00,
2013-05-19 16:27:00,86.1,60.3,29.89,SSW,202,6.9,6.9,42,0.00,,---,0.00,VWS V14.01,2013-05-19 20:27:00,
2013-05-19 16:32:00,86.3,60.5,29.89,SSE,158,2.9,2.9,42,0.00,,---,0.00,VWS V14.01,2013-05-19 20:32:00,
2013-05-19 16:37:00,86.5,60.0,29.88,SSE,158,0.0,0.0,41,0.00,,---,0.00,VWS V14.01,2013-05-19 20:37:00,
2013-05-19 16:42:00,86.5,60.7,29.89,ENE,68,0.0,4.6,42,0.00,,---,0.00,VWS V14.01,2013-05-19 20:42:00,
2013-05-19 16:47:00,86.9,60.4,29.89,SSE,158,0.0,0.0,41,0.00,,---,0.00,VWS V14.01,2013-05-19 20:47:00,
2013-05-19 16:52:00,87.0,60.5,29.88,SE,135,0.0,0.0,41,0.00,,---,0.00,VWS V14.01,2013-05-19 20:52:00,
2013-05-19 16:57:00,87.0,61.2,29.88,ESE,112,0.0,0.0,42,0.00,,---,0.00,VWS V14.01,2013-05-19 20:57:00,
2013-05-19 17:02:00,87.4,61.5,29.88,ENE,68,0.0,0.0,42,0.00,,---,0.00,VWS V14.01,2013-05-19 21:02:00,
2013-05-19 17:07:00,87.6,61.7,29.88,SE,135,0.0,0.0,42,0.00,,---,0.00,VWS V14.01,2013-05-19 21:07:00,
2013-05-19 17:12:00,87.9,61.3,29.88,ESE,112,0.0,0.0,41,0.00,,---,0.00,VWS V14.01,2013-05-19 21:12:00,
2013-05-19 17:17:00,88.1,61.5,29.88,SE,135,0.0,0.0,41,0.00,,---,0.00,VWS V14.01,2013-05-19 21:17:00,
2013-05-19 17:22:00,88.3,61.6,29.88,ESE,112,0.0,0.0,41,0.00,,---,0.00,VWS V14.01,2013-05-19 21:22:00,
2013-05-19 17:27:00,88.7,62.0,29.88,SE,135,0.0,0.0,41,0.00,,---,0.00,VWS V14.01,2013-05-19 21:27:00,
2013-05-19 17:32:00,88.3,60.9,29.87,SSE,158,0.0,0.0,40,0.00,,---,0.00,VWS V14.01,2013-05-19 21:32:00,
2013-05-19 17:37:00,88.3,61.6,29.87,South,180,2.0,2.0,41,0.00,,---,0.00,VWS V14.01,2013-05-19 21:37:00,
2013-05-19 17:42:00,88.5,61.8,29.87,SE,135,0.0,0.0,41,0.00,,---,0.00,VWS V14.01,2013-05-19 21:42:00,
2013-05-19 17:47:00,88.8,61.4,29.87,South,180,0.0,0.0,40,0.00,,---,0.00,VWS V14.01,2013-05-19 21:47:00,
2013-05-19 17:52:00,89.4,61.9,29.87,SSE,158,0.0,0.0,40,0.00,,---,0.00,VWS V14.01,2013-05-19 21:52:00,
2013-05-19 17:57:00,90.3,62.7,29.87,ESE,112,0.0,0.0,40,0.00,,---,0.00,VWS V14.01,2013-05-19 21:57:00,
2013-05-19 18:02:00,91.0,62.6,29.86,ESE,112,0.0,0.0,39,0.00,,---,0.00,VWS V14.01,2013-05-19 22:02:00,
2013-05-19 18:07:00,91.5,63.1,29.86,ENE,68,0.0,0.0,39,0.00,,---,0.00,VWS V14.01,2013-05-19 22:07:00,
2013-05-19 18:12:00,92.1,63.6,29.85,East,90,0.0,0.0,39,0.00,,---,0.00,VWS V14.01,2013-05-19 22:12:00,
2013-05-19 18:17:00,92.3,63.0,29.86,East,90,0.0,0.0,38,0.00,,---,0.00,VWS V14.01,2013-05-19 22:17:00,
2013-05-19 18:22:00,92.1,62.9,29.85,SSW,202,0.0,0.0,38,0.00,,---,0.00,VWS V14.01,2013-05-19 22:22:00,
2013-05-19 18:27:00,91.9,63.4,29.85,SE,135,0.0,0.0,39,0.00,,---,0.00,VWS V14.01,2013-05-19 22:27:00,
2013-05-19 18:32:00,91.9,62.7,29.85,SE,135,0.0,0.0,38,0.00,,---,0.00,VWS V14.01,2013-05-19 22:32:00,
2013-05-19 18:37:00,91.7,62.5,29.85,SSE,158,0.0,0.0,38,0.00,,---,0.00,VWS V14.01,2013-05-19 22:37:00,
2013-05-19 18:42:00,91.7,62.5,29.86,NNE,22,0.0,0.0,38,0.00,,---,0.00,VWS V14.01,2013-05-19 22:42:00,
2013-05-19 18:47:00,91.5,62.3,29.86,SSE,158,0.0,0.0,38,0.00,,---,0.00,VWS V14.01,2013-05-19 22:47:00,
2013-05-19 18:52:00,91.0,61.1,29.86,SSE,158,0.0,0.0,37,0.00,,---,0.00,VWS V14.01,2013-05-19 22:52:00,
2013-05-19 18:57:00,90.6,62.3,29.85,SSE,158,0.0,5.1,39,0.00,,---,0.00,VWS V14.01,2013-05-19 22:57:00,
2013-05-19 19:02:00,90.3,62.0,29.85,SSE,158,4.4,4.4,39,0.00,,---,0.00,VWS V14.01,2013-05-19 23:02:00,
2013-05-19 19:07:00,90.1,61.8,29.85,SSE,158,0.0,0.0,39,0.00,,---,0.00,VWS V14.01,2013-05-19 23:07:00,
2013-05-19 19:12:00,89.9,61.7,29.85,South,180,0.0,0.0,39,0.00,,---,0.00,VWS V14.01,2013-05-19 23:12:00,
2013-05-19 19:17:00,89.7,61.5,29.85,SSE,158,0.0,0.0,39,0.00,,---,0.00,VWS V14.01,2013-05-19 23:17:00,
2013-05-19 19:22:00,89.4,61.2,29.85,South,180,0.0,0.0,39,0.00,,---,0.00,VWS V14.01,2013-05-19 23:22:00,
2013-05-19 19:27:00,88.5,61.1,29.85,SSE,158,0.0,0.0,40,0.00,,---,0.00,VWS V14.01,2013-05-19 23:27:00,
2013-05-19 19:32:00,87.8,60.5,29.85,South,180,0.0,0.0,40,0.00,,---,0.00,VWS V14.01,2013-05-19 23:32:00,
2013-05-19 19:37:00,87.4,60.8,29.85,SSE,158,0.0,0.0,41,0.00,,---,0.00,VWS V14.01,2013-05-19 23:37:00,
2013-05-19 19:42:00,86.7,60.2,29.85,SSE,158,0.0,0.0,41,0.00,,---,0.00,VWS V14.01,2013-05-19 23:42:00,
2013-05-19 19:47:00,86.1,60.3,29.84,SSE,158,0.0,0.0,42,0.00,,---,0.00,VWS V14.01,2013-05-19 23:47:00,
2013-05-19 19:52:00,85.8,60.1,29.85,SSE,158,0.0,0.0,42,0.00,,---,0.00,VWS V14.01,2013-05-19 23:52:00,
2013-05-19 19:57:00,85.6,59.9,29.85,SSE,158,0.0,0.0,42,0.00,,---,0.00,VWS V14.01,2013-05-19 23:57:00,
2013-05-19 20:02:00,85.2,60.2,29.85,SSE,158,0.0,0.0,43,0.00,,---,0.00,VWS V14.01,2013-05-20 00:02:00,
2013-05-19 20:07:00,84.9,59.9,29.85,SSE,158,0.0,0.0,43,0.00,,---,0.00,VWS V14.01,2013-05-20 00:07:00,
2013-05-19 20:12:00,84.3,59.4,29.85,SSE,158,0.0,0.0,43,0.00,,---,0.00,VWS V14.01,2013-05-20 00:12:00,
2013-05-19 20:17:00,84.0,59.8,29.86,SSE,158,3.1,3.1,44,0.00,,---,0.00,VWS V14.01,2013-05-20 00:17:00,
2013-05-19 20:22:00,83.6,59.4,29.85,SSE,158,0.0,0.0,44,0.00,,---,0.00,VWS V14.01,2013-05-20 00:22:00,
2013-05-19 20:27:00,83.1,59.0,29.85,SSE,158,0.0,0.0,44,0.00,,---,0.00,VWS V14.01,2013-05-20 00:27:00,
2013-05-19 20:32:00,82.7,59.2,29.86,SSE,158,0.0,0.0,45,0.00,,---,0.00,VWS V14.01,2013-05-20 00:32:00,
2013-05-19 20:37:00,82.5,59.0,29.85,SSE,158,0.0,0.0,45,0.00,,---,0.00,VWS V14.01,2013-05-20 00:37:00,
2013-05-19 20:42:00,82.0,58.6,29.85,SSE,158,0.0,0.0,45,0.00,,---,0.00,VWS V14.01,2013-05-20 00:42:00,
2013-05-19 20:47:00,81.6,58.8,29.85,SSE,158,0.0,0.0,46,0.00,,---,0.00,VWS V14.01,2013-05-20 00:47:00,
2013-05-19 20:52:00,81.3,58.6,29.85,SSE,158,0.0,0.0,46,0.00,,---,0.00,VWS V14.01,2013-05-20 00:52:00,
2013-05-19 20:57:00,80.7,58.0,29.86,SSE,158,0.0,0.0,46,0.00,,---,0.00,VWS V14.01,2013-05-20 00:57:00,
2013-05-19 21:02:00,80.4,58.3,29.86,SSE,158,0.0,0.0,47,0.00,,---,0.00,VWS V14.01,2013-05-20 01:02:00,
2013-05-19 21:07:00,80.2,58.2,29.86,SSE,158,0.0,0.0,47,0.00,,---,0.00,VWS V14.01,2013-05-20 01:07:00,
2013-05-19 21:12:00,79.5,58.1,29.86,SSE,158,0.0,0.0,48,0.00,,---,0.00,VWS V14.01,2013-05-20 01:12:00,
2013-05-19 21:17:00,79.1,57.8,29.86,SSE,158,0.0,0.0,48,0.00,,---,0.00,VWS V14.01,2013-05-20 01:17:00,
2013-05-19 21:22:00,78.6,57.9,29.86,SSE,158,0.0,0.0,49,0.00,,---,0.00,VWS V14.01,2013-05-20 01:22:00,
2013-05-19 21:27:00,78.0,57.9,29.85,SSE,158,0.0,0.0,50,0.00,,---,0.00,VWS V14.01,2013-05-20 01:27:00,
2013-05-19 21:32:00,77.7,57.6,29.85,SSE,158,0.0,0.0,50,0.00,,---,0.00,VWS V14.01,2013-05-20 01:32:00,
2013-05-19 21:37:00,77.3,57.8,29.85,SSE,158,0.0,0.0,51,0.00,,---,0.00,VWS V14.01,2013-05-20 01:37:00,
2013-05-19 21:42:00,76.8,57.3,29.85,SSE,158,0.0,0.0,51,0.00,,---,0.00,VWS V14.01,2013-05-20 01:42:00,
2013-05-19 21:47:00,76.6,57.7,29.85,SSE,158,0.0,0.0,52,0.00,,---,0.00,VWS V14.01,2013-05-20 01:47:00,
2013-05-19 21:52:00,76.2,57.3,29.85,SSE,158,0.0,0.0,52,0.00,,---,0.00,VWS V14.01,2013-05-20 01:52:00,
2013-05-19 21:57:00,75.9,57.6,29.85,SSE,158,0.0,0.0,53,0.00,,---,0.00,VWS V14.01,2013-05-20 01:57:00,
2013-05-19 22:02:00,75.7,57.4,29.86,SSE,158,0.0,0.0,53,0.00,,---,0.00,VWS V14.01,2013-05-20 02:02:00,
2013-05-19 22:07:00,75.3,57.0,29.85,SSE,158,0.0,0.0,53,0.00,,---,0.00,VWS V14.01,2013-05-20 02:07:00,
2013-05-19 22:12:00,75.0,57.2,29.85,SSE,158,0.0,0.0,54,0.00,,---,0.00,VWS V14.01,2013-05-20 02:12:00,
2013-05-19 22:17:00,75.0,57.2,29.86,SSE,158,0.0,0.0,54,0.00,,---,0.00,VWS V14.01,2013-05-20 02:17:00,
2013-05-19 22:22:00,74.6,57.4,29.86,SSE,158,0.0,0.0,55,0.00,,---,0.00,VWS V14.01,2013-05-20 02:22:00,
2013-05-19 22:27:00,74.4,57.2,29.85,SSE,158,0.0,0.0,55,0.00,,---,0.00,VWS V14.01,2013-05-20 02:27:00,
2013-05-19 22:32:00,74.4,57.7,29.86,SSE,158,0.0,0.0,56,0.00,,---,0.00,VWS V14.01,2013-05-20 02:32:00,
2013-05-19 22:37:00,74.3,57.6,29.86,SSE,158,3.1,3.1,56,0.00,,---,0.00,VWS V14.01,2013-05-20 02:37:00,
2013-05-19 22:42:00,74.3,58.1,29.86,South,180,0.0,0.0,57,0.00,,---,0.00,VWS V14.01,2013-05-20 02:42:00,
2013-05-19 22:47:00,74.1,57.9,29.86,SSE,158,1.5,1.5,57,0.00,,---,0.00,VWS V14.01,2013-05-20 02:47:00,
2013-05-19 22:52:00,74.3,58.1,29.86,SSE,158,0.0,0.0,57,0.00,,---,0.00,VWS V14.01,2013-05-20 02:52:00,
2013-05-19 22:57:00,74.3,58.1,29.86,SSE,158,0.0,0.0,57,0.00,,---,0.00,VWS V14.01,2013-05-20 02:57:00,
2013-05-19 23:02:00,74.3,58.1,29.87,SSE,158,0.0,0.0,57,0.00,,---,0.00,VWS V14.01,2013-05-20 03:02:00,
2013-05-19 23:07:00,74.1,58.4,29.87,SSE,158,0.0,0.0,58,0.00,,---,0.00,VWS V14.01,2013-05-20 03:07:00,
2013-05-19 23:12:00,74.1,58.4,29.87,SSE,158,0.0,0.0,58,0.00,,---,0.00,VWS V14.01,2013-05-20 03:12:00,
2013-05-19 23:17:00,74.1,58.4,29.88,SSE,158,0.0,0.0,58,0.00,,---,0.00,VWS V14.01,2013-05-20 03:17:00,
2013-05-19 23:22:00,73.9,58.2,29.88,SSE,158,0.0,0.0,58,0.00,,---,0.00,VWS V14.01,2013-05-20 03:22:00,
2013-05-19 23:27:00,73.7,58.0,29.88,SSE,158,0.0,0.0,58,0.00,,---,0.00,VWS V14.01,2013-05-20 03:27:00,
2013-05-19 23:32:00,73.5,57.8,29.88,SSE,158,0.0,0.0,58,0.00,,---,0.00,VWS V14.01,2013-05-20 03:32:00,
2013-05-19 23:37:00,73.2,58.0,29.88,SSE,158,0.0,0.0,59,0.00,,---,0.00,VWS V14.01,2013-05-20 03:37:00,
2013-05-19 23:42:00,73.2,58.0,29.88,SSE,158,0.0,0.0,59,0.00,,---,0.00,VWS V14.01,2013-05-20 03:42:00,
2013-05-19 23:47:00,73.0,57.8,29.88,SSE,158,0.0,0.0,59,0.00,,---,0.00,VWS V14.01,2013-05-20 03:47:00,
2013-05-19 23:52:00,72.8,57.7,29.89,SSE,158,0.0,0.0,59,0.00,,---,0.00,VWS V14.01,2013-05-20 03:52:00,
2013-05-19 23:57:00,72.6,57.9,29.89,SSE,158,0.0,0.0,60,0.00,,---,0.00,VWS V14.01,2013-05-20 03:57:00,